• In Netherlands
  • List of Countries
  • For 7 days
  • Water Temperature
  • Satellite Maps
  • Weather Map
  • Weather Widgets
  • user-avatar
    Login

    Hourly Weather Baku

    Today, 28 March, Tuesday

    Time Temperature Precipitation Wind Pressure Humidity
    00:00 +6°C° 0 mm 5 mps 758 mmHg 87%
    01:00 +6°C° 0 mm 5 mps 758 mmHg 88%
    02:00 +6°C° 0 mm 5 mps 757 mmHg 89%
    03:00 +6°C° 0 mm 5 mps 757 mmHg 90%
    04:00 +5°C° 0 mm 6 mps 758 mmHg 90%
    05:00 +5°C° 0 mm 7 mps 758 mmHg 89%
    06:00 +5°C° 0 mm 8 mps 758 mmHg 89%
    07:00 +6°C° 0 mm 8 mps 759 mmHg 84%
    08:00 +7°C° 0 mm 9 mps 760 mmHg 79%
    09:00 +7°C° 0 mm 10 mps 761 mmHg 75%
    10:00 +8°C° 0 mm 10 mps 761 mmHg 72%
    11:00 +8°C° 0 mm 10 mps 762 mmHg 68%
    12:00 +9°C° 0 mm 10 mps 762 mmHg 65%
    13:00 +8°C° 0 mm 9 mps 762 mmHg 66%
    14:00 +9°C° 0 mm 8 mps 762 mmHg 67%
    15:00 +9°C° 0 mm 8 mps 762 mmHg 67%
    16:00 +8°C° 0 mm 6 mps 762 mmHg 69%
    17:00 +8°C° 0 mm 4 mps 762 mmHg 71%
    18:00 +9°C° 0 mm 3 mps 762 mmHg 72%
    19:00 +8°C° 0 mm 3 mps 763 mmHg 74%
    20:00 +8°C° 0 mm 3 mps 763 mmHg 76%
    21:00 +8°C° 0 mm 3 mps 763 mmHg 79%
    22:00 +7°C° 0 mm 5 mps 762 mmHg 78%
    23:00 +6°C° 0 mm 7 mps 762 mmHg 77%

    Tomorrow, 29 March, Wednesday

    Time Temperature Precipitation Wind Pressure Humidity
    00:00 +6°C° 0 mm 8 mps 761 mmHg 77%
    01:00 +6°C° 0 mm 9 mps 761 mmHg 75%
    02:00 +6°C° 0 mm 9 mps 760 mmHg 74%
    03:00 +6°C° 0 mm 10 mps 759 mmHg 72%
    04:00 +6°C° 0 mm 10 mps 759 mmHg 64%
    05:00 +6°C° 0 mm 9 mps 759 mmHg 57%
    06:00 +6°C° 0 mm 9 mps 759 mmHg 49%
    07:00 +9°C° 0 mm 8 mps 760 mmHg 46%
    08:00 +11°C° 0 mm 7 mps 760 mmHg 42%
    09:00 +12°C° 0 mm 7 mps 761 mmHg 38%
    10:00 +14°C° 0 mm 7 mps 761 mmHg 41%
    11:00 +14°C° 0 mm 7 mps 761 mmHg 43%
    12:00 +15°C° 0 mm 7 mps 762 mmHg 45%
    13:00 +14°C° 0 mm 7 mps 762 mmHg 48%
    14:00 +14°C° 0 mm 7 mps 762 mmHg 50%
    15:00 +12°C° 0 mm 7 mps 763 mmHg 53%
    16:00 +11°C° 0 mm 6 mps 763 mmHg 60%
    17:00 +9°C° 0 mm 6 mps 764 mmHg 67%
    18:00 +8°C° 0 mm 6 mps 765 mmHg 74%
    19:00 +8°C° 0 mm 5 mps 766 mmHg 75%
    20:00 +7°C° 0 mm 4 mps 767 mmHg 76%
    21:00 +8°C° 0 mm 3 mps 768 mmHg 77%
    22:00 +8°C° 0 mm 3 mps 768 mmHg 78%
    23:00 +7°C° 0 mm 2 mps 768 mmHg 79%

    Day after tomorrow, 30 March, Thursday

    Time Temperature Precipitation Wind Pressure Humidity
    00:00 +7°C° 0 mm 2 mps 769 mmHg 80%
    01:00 +7°C° 0 mm 2 mps 769 mmHg 79%
    02:00 +7°C° 0 mm 2 mps 769 mmHg 78%
    03:00 +7°C° 0 mm 2 mps 769 mmHg 77%
    04:00 +7°C° 0 mm 2 mps 769 mmHg 76%
    05:00 +7°C° 0 mm 2 mps 769 mmHg 75%
    06:00 +7°C° 0 mm 2 mps 769 mmHg 74%
    07:00 +9°C° 0 mm 3 mps 769 mmHg 68%
    08:00 +10°C° 0 mm 4 mps 769 mmHg 63%
    09:00 +11°C° 0 mm 4 mps 770 mmHg 57%
    10:00 +12°C° 0 mm 5 mps 769 mmHg 56%
    11:00 +13°C° 0 mm 6 mps 768 mmHg 55%
    12:00 +13°C° 0 mm 6 mps 768 mmHg 54%
    13:00 +13°C° 0 mm 6 mps 767 mmHg 54%
    14:00 +12°C° 0 mm 7 mps 766 mmHg 55%
    15:00 +12°C° 0 mm 7 mps 765 mmHg 55%
    16:00 +12°C° 0 mm 7 mps 765 mmHg 59%
    17:00 +11°C° 0 mm 7 mps 764 mmHg 62%
    18:00 +10°C° 0 mm 6 mps 764 mmHg 65%
    19:00 +10°C° 0 mm 6 mps 764 mmHg 67%
    20:00 +10°C° 0 mm 6 mps 764 mmHg 68%
    21:00 +9°C° 0 mm 6 mps 764 mmHg 69%
    22:00 +9°C° 0 mm 6 mps 763 mmHg 69%
    23:00 +9°C° 0 mm 6 mps 762 mmHg 70%

    31 March, Friday

    Time Temperature Precipitation Wind Pressure Humidity
    00:00 +9°C° 0 mm 6 mps 762 mmHg 70%
    01:00 +9°C° 0 mm 6 mps 761 mmHg 72%
    02:00 +9°C° 0 mm 6 mps 761 mmHg 74%
    03:00 +8°C° 0 mm 5 mps 760 mmHg 76%
    04:00 +8°C° 0 mm 5 mps 761 mmHg 73%
    05:00 +8°C° 0 mm 5 mps 761 mmHg 70%
    06:00 +8°C° 0 mm 4 mps 761 mmHg 67%
    07:00 +10°C° 0 mm 6 mps 762 mmHg 61%
    08:00 +11°C° 0 mm 7 mps 762 mmHg 55%
    09:00 +13°C° 0 mm 8 mps 763 mmHg 48%
    10:00 +15°C° 0 mm 9 mps 763 mmHg 49%
    11:00 +14°C° 0 mm 10 mps 763 mmHg 50%
    12:00 +14°C° 0 mm 11 mps 763 mmHg 50%
    13:00 +14°C° 0 mm 11 mps 764 mmHg 53%
    14:00 +13°C° 0 mm 12 mps 764 mmHg 56%
    15:00 +13°C° 0 mm 12 mps 764 mmHg 58%
    16:00 +10°C° 0 mm 12 mps 765 mmHg 66%
    17:00 +9°C° 0 mm 12 mps 766 mmHg 73%
    18:00 +8°C° 0 mm 12 mps 767 mmHg 80%
    19:00 +7°C° 0 mm 13 mps 767 mmHg 80%
    20:00 +7°C° 0 mm 13 mps 768 mmHg 81%
    21:00 +5°C° 0 mm 13 mps 769 mmHg 81%
    22:00 +5°C° 0 mm 12 mps 769 mmHg 79%
    23:00 +5°C° 0 mm 12 mps 769 mmHg 78%

    1 April, Saturday

    Time Temperature Precipitation Wind Pressure Humidity
    00:00 +4°C° 0 mm 11 mps 769 mmHg 76%
    01:00 +4°C° 0.1 mm 11 mps 769 mmHg 74%
    02:00 +5°C° 0.1 mm 10 mps 769 mmHg 73%
    03:00 +5°C° 0.1 mm 9 mps 769 mmHg 71%
    04:00 +5°C° 0.2 mm 9 mps 769 mmHg 71%
    05:00 +4°C° 0.2 mm 8 mps 769 mmHg 70%
    06:00 +4°C° 0.2 mm 8 mps 769 mmHg 69%
    07:00 +4°C° 0 mm 7 mps 769 mmHg 67%
    08:00 +4°C° 0 mm 7 mps 769 mmHg 65%
    09:00 +5°C° 0 mm 7 mps 769 mmHg 63%
    10:00 +5°C° 0.4 mm 7 mps 768 mmHg 63%
    11:00 +5°C° 0.4 mm 7 mps 768 mmHg 63%
    12:00 +5°C° 0.4 mm 6 mps 768 mmHg 62%
    13:00 +5°C° 0.5 mm 6 mps 767 mmHg 65%
    14:00 +4°C° 0.5 mm 6 mps 767 mmHg 68%
    15:00 +4°C° 0.5 mm 6 mps 767 mmHg 70%
    16:00 +4°C° 0.1 mm 7 mps 767 mmHg 72%
    17:00 +4°C° 0.1 mm 7 mps 767 mmHg 73%
    18:00 +4°C° 0.1 mm 7 mps 767 mmHg 74%
    19:00 +4°C° 0 mm 6 mps 767 mmHg 74%
    20:00 +4°C° 0 mm 6 mps 767 mmHg 74%
    21:00 +3°C° 0 mm 5 mps 768 mmHg 74%
    22:00 +3°C° 0 mm 5 mps 767 mmHg 75%
    23:00 +3°C° 0 mm 5 mps 767 mmHg 75%

    2 April, Sunday

    Time Temperature Precipitation Wind Pressure Humidity
    00:00 +3°C° 0 mm 5 mps 767 mmHg 76%
    01:00 +3°C° 0 mm 6 mps 767 mmHg 76%
    02:00 +3°C° 0 mm 6 mps 767 mmHg 76%
    03:00 +3°C° 0 mm 7 mps 768 mmHg 77%
    04:00 +2°C° 0 mm 8 mps 768 mmHg 77%
    05:00 +2°C° 0 mm 8 mps 768 mmHg 76%
    06:00 +2°C° 0 mm 9 mps 768 mmHg 76%
    07:00 +3°C° 0 mm 9 mps 769 mmHg 74%
    08:00 +3°C° 0 mm 10 mps 769 mmHg 72%
    09:00 +5°C° 0 mm 10 mps 770 mmHg 70%
    10:00 +5°C° 0 mm 10 mps 770 mmHg 66%
    11:00 +6°C° 0 mm 9 mps 770 mmHg 63%
    12:00 +6°C° 0 mm 9 mps 770 mmHg 59%
    13:00 +6°C° 0 mm 9 mps 770 mmHg 57%
    14:00 +6°C° 0 mm 8 mps 770 mmHg 55%
    15:00 +6°C° 0 mm 8 mps 770 mmHg 53%
    16:00 +6°C° 0 mm 8 mps 771 mmHg 55%
    17:00 +5°C° 0 mm 7 mps 771 mmHg 56%
    18:00 +5°C° 0 mm 7 mps 771 mmHg 57%
    19:00 +5°C° 0 mm 6 mps 771 mmHg 59%
    20:00 +4°C° 0 mm 6 mps 772 mmHg 61%
    21:00 +5°C° 0 mm 5 mps 772 mmHg 62%
    22:00 +5°C° 0 mm 5 mps 772 mmHg 63%
    23:00 +3°C° 0 mm 5 mps 772 mmHg 64%
    Show more